KC9EM-13 Weather Reports


time (UTC)temp
C
wind
direction
speed
KPH
gust
KPH
rain 1hr
cm
rain 24hr
cm
rain mn
cm
humidity
%
barometer
mb
20260504044550 15 208 11.3 22.5 0.00 0.00 0.00 59 1010.8
20260504043048 15 160 12.9 27.4 0.00 0.00 0.00 59 1010.7
20260504041552 15 205 14.5 25.7 0.00 0.00 0.00 59 1011.0
20260504040057 15 233 14.5 25.7 0.00 0.00 0.00 58 1011.1
20260504034552 15 202 14.5 27.4 0.00 0.00 0.00 59 1011.1
20260504033052 15 163 14.5 22.5 0.00 0.00 0.00 58 1011.2
20260504031602 15 188 11.3 24.1 0.00 0.00 0.00 57 1011.6
20260504030051 15 173 12.9 24.1 0.00 0.00 0.00 56 1011.4
20260504024600 16 180 11.3 24.1 0.00 0.00 0.00 54 1011.5
20260504023047 16 187 11.3 24.1 0.00 0.00 0.00 55 1011.7
20260504021555 16 213 16.1 27.4 0.00 0.00 0.00 55 1011.4
20260504020054 15 194 17.7 29.0 0.00 0.00 0.00 55 1011.2
20260504014555 16 203 14.5 29.0 0.00 0.00 0.00 56 1011.3
20260504013101 16 175 12.9 22.5 0.00 0.00 0.00 54 1011.5
20260504011546 16 167 12.9 27.4 0.00 0.00 0.00 53 1011.5
20260504010046 16 207 11.3 24.1 0.00 0.00 0.00 52 1011.6
20260504004600 17 205 16.1 25.7 0.00 0.00 0.00 50 1011.8
20260504003046 17 205 14.5 27.4 0.00 0.00 0.00 49 1011.9
20260504001548 17 202 12.9 22.5 0.00 0.00 0.00 49 1012.2
20260504000050 17 217 11.3 25.7 0.00 0.00 0.00 49 1012.3
20260503234552 17 208 16.1 29.0 0.00 0.00 0.00 47 1012.3
20260503233047 18 182 14.5 38.6 0.00 0.00 0.00 47 1012.2
20260503231554 18 194 20.9 33.8 0.00 0.00 0.00 45 1012.0
20260503230051 18 207 19.3 41.8 0.00 0.00 0.00 46 1012.1
20260503224551 18 246 19.3 37.0 0.00 0.00 0.00 45 1012.2
20260503223052 18 207 24.1 37.0 0.00 0.00 0.00 45 1012.1
20260503221555 18 213 24.1 43.5 0.00 0.00 0.00 45 1012.1
20260503220048 18 202 24.1 40.2 0.00 0.00 0.00 45 1012.4
20260503214551 18 232 25.7 46.7 0.00 0.00 0.00 45 1012.5
20260503213049 18 212 24.1 53.1 0.00 0.00 0.00 45 1012.7
20260503211546 18 168 20.9 41.8 0.00 0.00 0.00 45 1013.0
20260503210051 19 165 19.3 41.8 0.00 0.00 0.00 45 1013.2
20260503204555 19 229 22.5 32.2 0.00 0.00 0.00 44 1013.7
20260503203055 18 227 16.1 40.2 0.00 0.00 0.00 47 1014.7
20260503201549 18 261 19.3 35.4 0.00 0.00 0.00 46 1015.0
20260503200050 18 231 20.9 38.6 0.00 0.00 0.00 45 1015.4
20260503194550 18 188 16.1 35.4 0.00 0.00 0.00 47 1015.2
20260503193058 18 201 20.9 37.0 0.00 0.00 0.00 45 1015.6
20260503191553 18 189 20.9 33.8 0.00 0.00 0.00 47 1016.1
20260503190052 17 192 19.3 48.3 0.00 0.00 0.00 47 1016.1
20260503184601 18 181 17.7 40.2 0.00 0.00 0.00 47 1016.6
20260503183047 17 235 14.5 37.0 0.00 0.00 0.00 48 1017.0
20260503181549 16 192 20.9 35.4 0.00 0.00 0.00 51 1017.3
20260503180051 17 214 20.9 38.6 0.00 0.00 0.00 48 1017.7
20260503174603 17 197 19.3 35.4 0.00 0.00 0.00 51 1017.9
20260503173048 17 218 16.1 35.4 0.00 0.00 0.00 51 1018.1
20260503171542 17 225 16.1 33.8 0.00 0.00 0.00 51 1018.4
20260503081549 6 208 1.6 6.4 0.00 0.03 0.00 70 1019.3
20260503071545 6 211 3.2 6.4 0.00 0.03 0.00 70 1019.3